Tracking 29777 objects as of 4-Oct-2024
HD Live streaming from Space Station
objects crossing your sky now

PICO-01B009

Track PICO-01B009 now!
10-day predictions


NORAD ID: 58287
Int'l Code: 2023-174AH
Perigee: 494.8 km
Apogee: 506.8 km
Inclination: 97.4 °
Period: 94.5 minutes
Semi major axis: 6871 km
RCS: Unknown
Launch date: November 11, 2023
Source: Italy (IT)
Launch site: AIR FORCE WESTERN TEST RANGE (AFWTR)
Your satellite tracking list
Your tracking list is empty




NASA's NSSDC Master Catalog

Two Line Element Set (TLE):
1 58287U 23174AH  24277.81778428  .00040359  00000-0  16581-2 0  9998
2 58287  97.4441 351.1998 0008756 196.8442 163.2506 15.24039110 50225
Source of the keplerian elements: AFSPC